Showing default

KINEIS-2C, 62929

Orbit data source: Space-Track

KINEIS-2C, 62929 is a French payload satellite in SSO that was launched on Sat, 08 Feb 2025 UTC via an ELECTRON launch vehicle from the Rocket Lab Launch Complex (RLLC). Payload-class satellites include a variety of spacecraft equipped with specific instruments for various scientific and technological missions. These include communications satellites like Starlink; space stations such as the ISS; scientific satellites like the Hubble; Earth observation satellites from companies like Planet Labs, Umbra, and HawkEye 360; GPS; miniature CubeSats for education and research; and military/defense satellites.

Loading next visibility...
Identifier
62929, 2025-028B
Orbit
SSO
Last TLE update
14 hours ago
Origin
Manufacturer
KINEIS
Mission
Operational Commercial Communications
Bus & Motor
CUBESAT 16U, Unknown motor
Mass
28 kg wet, 28 kg dry
Launch date (UTC)
2025-02-08 (3 months ago)
Launch vehicle
ELECTRON
Launch site
Rocket Lab Launch Complex (RLLC)
Object type
Payload
Rocket body
Debris
Shape & HBR
Box + 2 Pan + 1 Ant, 1.6 m
Radar Cross Section
0.229 m², Medium (>0.1 m² and < 1m²)

Expand to show TLE details & history

TLE from 14 hours ago
0 KINEIS-2C
1 62929U 25028B   25128.71713762  .00002065  00000-0  33413-3 0  9997
2 62929  98.0024 183.1637 0001586 156.8637 203.2642 14.72355734 13091
Epoch: 2025-05-08T17:12Z
Definitive object data (Epoch: 2025-05-08T17:12:40.69Z)
Latitude
-0.00003°
Longitude
58.21053°
Altitude
657.59 km
Speed
7.528 km/s
True Right ascension
12h 12m 39s
True Declination
0° 00' 00"
Sunlit
Object was in full shadow at TLE epoch
Visualization TLE readout
Latitude
39.75536°
Longitude
-114.54903°
Altitude
658.151 km
Speed
7.533 km/s
Apparent Right ascension
01h 48m 23s
Apparent Declination
2° 22' 17"
Sunlit
Object is in daylight
Visualization observer readout
Local Sidereal Time
15:02:27
Azimuth
26.386° NE
Elevation
-44.435°
Doppler factor
1
Orbital elements
Apogee altitude
651.728 km
Perigee altitude
649.499 km
Semi-major axis
7,028.75 km
Eccentricity
0.0001586
Inclination
98.0024°
RAAN
183.1637°
Arg. of periapsis
156.8637°
True anomaly
203.25702°
Mean anomaly
203.2642°
Eccentric anomaly
203.26061°
Mean motion
3.68321 °/min
BSTAR
0.00033413
Orbital period
97.74 mins
Loading maneuver chart data...
Loading SW <> Apogee altitude chart data...
Loading historical data...
Loading historical data...
Loading historical data...
Loading historical data...
Loading historical data...
Loading historical data...
Loading historical data...

KINEIS-2C Visibility forecast

Observer location: undefined°, undefined°

Span
Click to sort rows by Start time (UTC) header in descending order
Start Az.
Max El. time (UTC)
Max El. Az.
Max El.
End time (UTC)
End Az.
8 mins2025-05-09 16:36:33.330Z8.483° NNE2025-05-09 16:40:33.330Z285.11° WNW43.989°2025-05-09 16:44:33.330Z200.532° SSW
7 mins2025-05-10 03:35:33.330Z165.841° S2025-05-10 03:38:33.330Z160.938° S44.816°2025-05-10 03:42:33.330Z347.499° N
|